• en Suisse
  • Liste des pays
  • À 7 jours
  • Température de l'eau
  • Carte satellitaire
  • Carte météo
  • Widgets météo
  • user-avatar
    Se connecter

    Météo par heure à Aleksandrie

    Ce jour, 21 Juin, Jeudi

    Heure Température Précipitation Vent Pression Humidité
    00:00 +27°C° 0 mm 3 m/s 761 mmHg 64%
    01:00 +27°C° 0 mm 3 m/s 761 mmHg 65%
    02:00 +26°C° 0 mm 2 m/s 760 mmHg 65%
    03:00 +26°C° 0 mm 2 m/s 761 mmHg 66%
    04:00 +26°C° 0 mm 2 m/s 761 mmHg 67%
    05:00 +25°C° 0 mm 2 m/s 761 mmHg 67%
    06:00 +27°C° 0 mm 2 m/s 761 mmHg 61%
    07:00 +28°C° 0 mm 2 m/s 761 mmHg 54%
    08:00 +30°C° 0 mm 1 m/s 761 mmHg 46%
    09:00 +32°C° 0 mm 2 m/s 761 mmHg 42%
    10:00 +34°C° 0 mm 2 m/s 761 mmHg 38%
    11:00 +36°C° 0 mm 2 m/s 761 mmHg 33%
    12:00 +36°C° 0 mm 3 m/s 761 mmHg 32%
    13:00 +37°C° 0 mm 4 m/s 760 mmHg 30%
    14:00 +37°C° 0 mm 4 m/s 760 mmHg 32%
    15:00 +36°C° 0 mm 4 m/s 760 mmHg 32%
    16:00 +36°C° 0 mm 5 m/s 760 mmHg 33%
    17:00 +36°C° 0 mm 5 m/s 760 mmHg 34%
    18:00 +34°C° 0 mm 5 m/s 760 mmHg 38%
    19:00 +33°C° 0 mm 4 m/s 760 mmHg 43%
    20:00 +30°C° 0 mm 4 m/s 760 mmHg 47%
    21:00 +30°C° 0 mm 4 m/s 760 mmHg 49%
    22:00 +29°C° 0 mm 4 m/s 760 mmHg 50%
    23:00 +29°C° 0 mm 4 m/s 760 mmHg 52%

    Demain, 22 Juin, Vendredi

    Heure Température Précipitation Vent Pression Humidité
    00:00 +28°C° 0 mm 4 m/s 760 mmHg 54%
    01:00 +28°C° 0 mm 4 m/s 760 mmHg 55%
    02:00 +28°C° 0 mm 3 m/s 760 mmHg 57%
    03:00 +27°C° 0 mm 3 m/s 760 mmHg 58%
    04:00 +27°C° 0 mm 3 m/s 759 mmHg 59%
    05:00 +27°C° 0 mm 3 m/s 759 mmHg 60%
    06:00 +28°C° 0 mm 3 m/s 759 mmHg 53%
    07:00 +30°C° 0 mm 4 m/s 759 mmHg 46%
    08:00 +33°C° 0 mm 4 m/s 759 mmHg 40%
    09:00 +34°C° 0 mm 4 m/s 759 mmHg 37%
    10:00 +36°C° 0 mm 4 m/s 760 mmHg 33%
    11:00 +39°C° 0 mm 5 m/s 760 mmHg 30%
    12:00 +39°C° 0 mm 5 m/s 759 mmHg 31%
    13:00 +39°C° 0 mm 6 m/s 759 mmHg 32%
    14:00 +39°C° 0 mm 7 m/s 759 mmHg 33%
    15:00 +38°C° 0 mm 7 m/s 758 mmHg 37%
    16:00 +37°C° 0 mm 8 m/s 758 mmHg 40%
    17:00 +34°C° 0 mm 8 m/s 758 mmHg 44%
    18:00 +33°C° 0 mm 7 m/s 758 mmHg 50%
    19:00 +32°C° 0 mm 7 m/s 758 mmHg 56%
    20:00 +29°C° 0 mm 6 m/s 758 mmHg 62%
    21:00 +29°C° 0 mm 6 m/s 758 mmHg 64%
    22:00 +29°C° 0 mm 5 m/s 759 mmHg 66%
    23:00 +28°C° 0 mm 4 m/s 759 mmHg 68%

    Après-demain, 23 Juin, Samedi

    Heure Température Précipitation Vent Pression Humidité
    00:00 +28°C° 0 mm 4 m/s 759 mmHg 70%
    01:00 +28°C° 0 mm 3 m/s 759 mmHg 71%
    02:00 +27°C° 0 mm 3 m/s 759 mmHg 73%
    03:00 +27°C° 0 mm 3 m/s 758 mmHg 74%
    04:00 +27°C° 0 mm 2 m/s 758 mmHg 75%
    05:00 +27°C° 0 mm 2 m/s 758 mmHg 77%
    06:00 +28°C° 0 mm 2 m/s 758 mmHg 70%
    07:00 +29°C° 0 mm 2 m/s 759 mmHg 63%
    08:00 +30°C° 0 mm 3 m/s 759 mmHg 56%
    09:00 +31°C° 0 mm 3 m/s 759 mmHg 52%
    10:00 +33°C° 0 mm 4 m/s 759 mmHg 48%
    11:00 +35°C° 0 mm 5 m/s 759 mmHg 43%
    12:00 +35°C° 0 mm 5 m/s 759 mmHg 42%
    13:00 +35°C° 0 mm 6 m/s 759 mmHg 41%
    14:00 +35°C° 0 mm 6 m/s 758 mmHg 40%
    15:00 +34°C° 0 mm 6 m/s 758 mmHg 42%
    16:00 +33°C° 0 mm 6 m/s 758 mmHg 44%
    17:00 +32°C° 0 mm 6 m/s 757 mmHg 46%
    18:00 +30°C° 0 mm 5 m/s 758 mmHg 52%
    19:00 +29°C° 0 mm 5 m/s 758 mmHg 58%
    20:00 +28°C° 0 mm 4 m/s 759 mmHg 64%
    21:00 +28°C° 0 mm 4 m/s 759 mmHg 67%
    22:00 +27°C° 0 mm 4 m/s 759 mmHg 70%
    23:00 +27°C° 0 mm 4 m/s 759 mmHg 73%

    24 Juin, Dimanche

    Heure Température Précipitation Vent Pression Humidité
    00:00 +26°C° 0 mm 3 m/s 759 mmHg 74%
    01:00 +26°C° 0 mm 3 m/s 758 mmHg 76%
    02:00 +26°C° 0 mm 3 m/s 758 mmHg 77%
    03:00 +26°C° 0 mm 3 m/s 758 mmHg 78%
    04:00 +25°C° 0 mm 2 m/s 758 mmHg 79%
    05:00 +25°C° 0 mm 2 m/s 757 mmHg 80%
    06:00 +26°C° 0 mm 2 m/s 757 mmHg 74%
    07:00 +27°C° 0 mm 2 m/s 758 mmHg 68%
    08:00 +28°C° 0 mm 2 m/s 758 mmHg 62%
    09:00 +30°C° 0 mm 2 m/s 758 mmHg 57%
    10:00 +31°C° 0 mm 3 m/s 758 mmHg 51%
    11:00 +33°C° 0 mm 4 m/s 758 mmHg 46%
    12:00 +34°C° 0 mm 4 m/s 758 mmHg 46%
    13:00 +34°C° 0 mm 5 m/s 757 mmHg 45%
    14:00 +34°C° 0 mm 6 m/s 757 mmHg 45%
    15:00 +33°C° 0 mm 6 m/s 757 mmHg 49%
    16:00 +32°C° 0 mm 6 m/s 757 mmHg 52%
    17:00 +32°C° 0 mm 6 m/s 757 mmHg 56%
    18:00 +30°C° 0 mm 5 m/s 757 mmHg 62%
    19:00 +29°C° 0 mm 5 m/s 758 mmHg 67%
    20:00 +28°C° 0 mm 4 m/s 758 mmHg 73%
    21:00 +27°C° 0 mm 4 m/s 758 mmHg 75%
    22:00 +27°C° 0 mm 3 m/s 758 mmHg 77%
    23:00 +27°C° 0 mm 3 m/s 758 mmHg 79%

    25 Juin, Lundi

    Heure Température Précipitation Vent Pression Humidité
    00:00 +26°C° 0 mm 2 m/s 758 mmHg 81%
    01:00 +26°C° 0 mm 2 m/s 757 mmHg 82%
    02:00 +26°C° 0 mm 2 m/s 757 mmHg 83%
    03:00 +25°C° 0 mm 1 m/s 757 mmHg 84%
    04:00 +25°C° 0 mm 1 m/s 757 mmHg 85%
    05:00 +25°C° 0 mm 1 m/s 757 mmHg 86%
    06:00 +26°C° 0 mm 1 m/s 757 mmHg 79%
    07:00 +27°C° 0 mm 1 m/s 757 mmHg 72%
    08:00 +28°C° 0 mm 1 m/s 758 mmHg 65%
    09:00 +30°C° 0 mm 2 m/s 758 mmHg 58%
    10:00 +31°C° 0 mm 2 m/s 758 mmHg 51%
    11:00 +33°C° 0 mm 3 m/s 758 mmHg 44%
    12:00 +34°C° 0 mm 3 m/s 757 mmHg 43%
    13:00 +34°C° 0 mm 4 m/s 757 mmHg 43%
    14:00 +35°C° 0 mm 5 m/s 757 mmHg 43%
    15:00 +34°C° 0 mm 5 m/s 757 mmHg 44%
    16:00 +33°C° 0 mm 5 m/s 757 mmHg 46%
    17:00 +33°C° 0 mm 5 m/s 757 mmHg 48%
    18:00 +30°C° 0 mm 5 m/s 757 mmHg 54%
    19:00 +29°C° 0 mm 5 m/s 758 mmHg 61%
    20:00 +28°C° 0 mm 4 m/s 758 mmHg 68%
    21:00 +28°C° 0 mm 4 m/s 758 mmHg 70%
    22:00 +27°C° 0 mm 3 m/s 758 mmHg 73%
    23:00 +27°C° 0 mm 3 m/s 759 mmHg 76%

    26 Juin, Mardi

    Heure Température Précipitation Vent Pression Humidité
    00:00 +26°C° 0 mm 2 m/s 758 mmHg 77%
    01:00 +26°C° 0 mm 2 m/s 758 mmHg 79%
    02:00 +26°C° 0 mm 1 m/s 757 mmHg 80%
    03:00 +25°C° 0 mm 1 m/s 757 mmHg 82%
    04:00 +25°C° 0 mm 1 m/s 757 mmHg 83%
    05:00 +25°C° 0 mm 1 m/s 757 mmHg 85%
    06:00 +26°C° 0 mm 2 m/s 757 mmHg 76%
    07:00 +27°C° 0 mm 2 m/s 757 mmHg 67%
    08:00 +29°C° 0 mm 2 m/s 757 mmHg 58%
    09:00 +31°C° 0 mm 2 m/s 757 mmHg 49%
    10:00 +34°C° 0 mm 2 m/s 757 mmHg 41%
    11:00 +36°C° 0 mm 2 m/s 757 mmHg 32%
    12:00 +37°C° 0 mm 3 m/s 757 mmHg 31%
    13:00 +37°C° 0 mm 4 m/s 756 mmHg 30%
    14:00 +39°C° 0 mm 5 m/s 756 mmHg 29%
    15:00 +37°C° 0 mm 5 m/s 756 mmHg 32%
    16:00 +36°C° 0 mm 5 m/s 756 mmHg 35%
    17:00 +35°C° 0 mm 5 m/s 756 mmHg 38%
    18:00 +33°C° 0 mm 5 m/s 756 mmHg 44%
    19:00 +32°C° 0 mm 5 m/s 756 mmHg 50%
    20:00 +29°C° 0 mm 5 m/s 757 mmHg 56%
    21:00 +29°C° 0 mm 5 m/s 757 mmHg 57%
    22:00 +29°C° 0 mm 5 m/s 757 mmHg 58%
    23:00 +28°C° 0 mm 5 m/s 757 mmHg 59%
    Voir plus